Location: Asheville, NC
(35.6000°N, 82.5500°W)
Time: 00:09:26
(UTC-05:00)

XW-2D - Pass Details

Date: 05 January 2018
Orbit: 510 x 530 km, 97.5° (Epoch: 19 January)

Event Time Altitude Azimuth Distance (km) Brightness Sun altitude
Rises 07:09:59 0° 358° (N) 2,656 ? -6.4°
Reaches altitude 10° 07:12:17 10° 347° (NNW) 1,759 ? -6.0°
Maximum altitude 07:15:32 28° 288° (WNW) 1,004 ? -5.4°
Drops below altitude 10° 07:18:46 10° 229° (SW) 1,738 ? -4.8°
Sets 07:21:02 0° 217° (SW) 2,617 ? -4.3°
